Location: Cleveland
(41.4990°N, 81.6960°W)
Time: 09:49:17
(UTC-04:00)

N. Korean satellite - Pass Details

Date: 02 October 2021
Orbit: 450 x 495 km, 97.3° (Epoch: 19 October)

Event Time Altitude Azimuth Distance (km) Brightness Sun altitude
Rises 05:40:18 0° 33° (NNE) 2,556 11.0 -20.3°
Reaches altitude 10° 05:43:19 10° 62° (ENE) 1,679 10.4 -19.7°
Maximum altitude 05:45:06 13° 92° (E) 1,488 10.1 -19.4°
Drops below altitude 10° 05:46:54 10° 122° (ESE) 1,681 9.9 -19.1°
Sets 05:49:55 0° 150° (SSE) 2,562 10.5 -18.5°
